THOR AGENA B DEB, 511

Orbit data source: Space-Track

THOR AGENA B DEB, 511 is space debris in LEO originally from a launch on Sat, 29 Sep 1962 UTC launched from the Air Force Western Test Range (AFWTR). Debris objects in space refer to the collection of defunct objects orbiting the Earth. Examples of debris include non-operational satellites, rocket bodies, and fragments generated from explosions, collisions, or faulty payload assembly.

Loading next visibility...
Identifier
511, 1962-049D
Orbit
LEO
Country
Flag of USUS
Related business
Manufacturer
Unknown
Mission
Spacecraft
Bus & Motor
Unknown
Mass
Unknown
Launch date (UTC)
1962-09-29 (64 years ago)
Launch vehicle
Unknown
Launch site
Air Force Western Test Range (AFWTR)
Object type
Payload
Rocket body
Debris
Shape & HBR
Unknown shape, 0.1 m
Radar Cross Section
Medium (>0.1 m² and <1 m²)

Expand to show TLE details & history
Last TLE update: 22 hours ago

TLE from 22 hours ago
0 THOR AGENA B DEB
1 00511U 62049D   26199.35581361  .00000046  00000-0  43512-4 0  9996
2 00511  80.4283 160.9830 0030400 256.5248 267.9411 13.68569912183844
Epoch: 2026-07-18T08:32Z
TLE epoch observation values (Epoch: 2026-07-18T08:32:22.295Z)
Latitude
15.63555°
Longitude
-85.9707°
Altitude
1,007.723 km
Speed
7.349 km/s
True Right ascension
22h 33m 10s
True Declination
15° 32' 58"
Sunlit
Object was in full shadow at epoch
Visualization orbit readout
Latitude
Unknown
Longitude
Unknown
Altitude
Unknown
Speed
Unknown
Apparent Right ascension
Unknown
Apparent Declination
Unknown
Sunlit
N/A
Visualization observer readout
Local Sidereal Time
18:59:47
Azimuth
Unknown
Elevation
Unknown
Doppler factor
Unknown
Orbital elements
Apogee altitude
1,024.415 km
Perigee altitude
979.544 km
Semi-major axis
7,380.117 km
Eccentricity
0.00304
Inclination
80.4283°
RAAN
160.983°
Arg. of periapsis
256.5248°
True anomaly
267.59302°
Mean anomaly
267.9411°
Eccentric anomaly
267.76705°
Mean motion
3.42333 °/min
Orbital period
105.16 mins
BSTAR
0.000043512
Loading maneuver chart data...
Computing Atmospheric mass density...
Loading historical data...
Loading historical data...
Loading historical data...
Loading historical data...
Loading historical data...
Loading historical data...
Loading historical data...
Other satellites on launch #49 in the year 1962 (1962-09-29 UTC)

Documentation

Showing up to 5 results
|